User: anonymous   Login
Location: Ellerstadt
(49.4644°N, 8.2615°E)
Time: 11:39:38
(UTC+00:00)
Language:

Tiros 1 despin weight - Orbit

View from above orbital plane
View from above orbital plane
View from above satellite
View from above satellite

Ground track
Ground track

The orbit data is extracted from the following two-line orbital elements,

1 00115U 60002D   21164.76322880  .00000022  00000-0  29641-4 0  9995
2 00115  48.1674 336.6031 0034075  41.2930 319.0551 14.83777408245463
Epoch (UTC): 13 June 2021 18:19:02
Eccentricity: 0.0034075
inclination: 48.1674°
perigee height: 593 km
apogee height: 641 km
right ascension of ascending node: 336.6031°
argument of perigee: 41.2930°
revolutions per day: 14.83777408
mean anomaly at epoch: 319.0551°
orbit number at epoch: 24546

The dashed part of the orbit path shows where the satellite is in the earth's shadow,  

DLR